[[{"header":{"parameterUnit":"m.s-1","parameterCategory":2,"la1":30.2991,"la2":30.254,"lo1":-89.0895,"lo2":-89.0444,"dy":0.0017,"dx":0.0017,"nx":28,"ny":28,"refTime":"2025-08-01T03:00:00:Z","depth":"0","parameterNumber":2,"parameterNumberName":"U-component_of_CURRENTS"},"data":[0,0,0,0,0,0,0,0,0,0,0,0,0,0,0,0,0,0,0,0,0,0,0,0,0,0,0,0,0,0,0,0,0,0,0,0,0,0,0,0,0,0,0,0,0,0,0,0,0,0,0,0,0,0,0,0,0,0,0.1838,0.1838,0,0.1741,0.174,0.1738,0.1681,0.1681,0.1681,0.1681,0.1576,0.1573,0.157,0,0,0,0,0,0,0,0,0,0,0,0,0,0.1888,0.1888,0.1838,0.1838,0.1837,0.1741,0.174,0.1738,0.1681,0.1681,0.1681,0.1681,0.1577,0.1573,0.157,0,0,0,0,0,0,0,0,0,0,0,0,0,0.1833,0.1887,0.1839,0.1799,0.1795,0.1742,0.174,0.1738,0.1681,0.1681,0.1681,0.1681,0.1578,0.1574,0.1569,0.154,0,0,0.1556,0.1554,0,0,0,0,0,0,0,0,0.1836,0.1831,0.1806,0.1802,0.1797,0.1726,0.1719,0.1672,0.1681,0.172,0.1681,0.1681,0.1628,0.1619,0.1596,0.1535,0.1531,0.1556,0.1553,0.1551,0.155,0,0,0,0,0,0,0,0.184,0.1834,0.1796,0.1805,0.18,0.1757,0.175,0.1709,0.1672,0.1717,0.1713,0.1708,0.1625,0.16,0.1593,0.1529,0.1556,0.1552,0.1549,0.1548,0.1487,0.1488,0,0,0,0,0,0,0.1864,0.1838,0.1799,0.1794,0.1821,0.1757,0.1748,0.1746,0.1672,0.1662,0.1708,0.1706,0.1607,0.1598,0.1589,0.16,0.1551,0.1547,0.1545,0.1486,0.1488,0.1489,0,0,0,0,0,0,0.1865,0.1861,0.1803,0.1816,0.1806,0.1757,0.1754,0.1744,0.1723,0.1666,0.1655,0.1698,0.1607,0.1595,0.1559,0.1593,0.1545,0.1541,0.1485,0.1487,0.1488,0.159,0,0,0,0,0,0,0.1867,0.1863,0.1872,0.1818,0.1807,0.1778,0.1754,0.1742,0.1721,0.1717,0.1654,0.1644,0.1606,0.1566,0.1555,0.1587,0.1538,0.1484,0.1486,0.1488,0.1585,0.1594,0.1602,0,0,0,0,0,0.1869,0.189,0.1873,0.1868,0.182,0.1778,0.1768,0.173,0.1721,0.1711,0.1673,0.1646,0.1571,0.1563,0.155,0.1581,0.1483,0.1485,0.1487,0.1581,0.1592,0.1602,0,0,0,0,0,0,0.1926,0.1885,0.1865,0.1875,0.183,0.177,0.1769,0.1735,0.1695,0.17,0.1643,0.163,0.1619,0.1579,0.1572,0.157,0.1529,0.1528,0.1604,0.1615,0.1623,0.1702,0.1534,0,0,0,0,0,0.1941,0.194,0.1888,0.1894,0.188,0.1822,0.1804,0.1773,0.1732,0.1714,0.1666,0.1632,0.1617,0.1599,0.1568,0.1552,0.1654,0.1569,0.1577,0.1585,0.164,0.1847,0.1882,0.1496,0.1496,0.1496,0,0,0.1967,0.1944,0.1945,0.1905,0.1873,0.1853,0.1811,0.179,0.1776,0.171,0.1682,0.1656,0.1619,0.1613,0.1605,0.1583,0.1744,0.1588,0.1595,0.1647,0.1853,0.1892,0.1927,0.1497,0.1497,0.1497,0,0,0.202,0.1996,0.2013,0.1975,0.1933,0.1889,0.1885,0.1823,0.1802,0.1759,0.1737,0.175,0.1663,0.1687,0.1679,0.172,0.1786,0.1685,0.1789,0.1988,0.2024,0.2057,0.2235,0.2283,0.1687,0.1687,0.1687,0,0.2062,0.2063,0.201,0.2007,0.1991,0.191,0.1917,0.1874,0.1805,0.1824,0.1762,0.1769,0.172,0.1798,0.18,0.1749,0.1867,0.1751,0.2009,0.2043,0.2076,0.225,0.2302,0.1692,0.1691,0.1691,0.169,0,0.2115,0.211,0.2117,0.2083,0.2053,0.2045,0.1979,0.1962,0.1916,0.1892,0.1938,0.1897,0.193,0.1897,0.1846,0.2038,0.205,0.2005,0.2,0.2123,0.2295,0.2348,0.1699,0.1698,0.1696,0.1695,0,0,0.2243,0.2172,0.2179,0.2168,0.2096,0.2081,0.2073,0.2067,0.2111,0.2051,0.2147,0.2112,0.2133,0.2132,0.2104,0.224,0.2532,0.2217,0.2225,0.2427,0.2995,0.2981,0.3036,0.2548,0.2558,0.2565,0.3026,0,0.2311,0.2322,0.2266,0.2269,0.2266,0.2199,0.2198,0.2184,0.217,0.2231,0.2253,0.2306,0.2207,0.2252,0.2381,0.2477,0.2676,0.2413,0.2819,0.2832,0.2833,0.3099,0.2997,0.3399,0.3078,0.3086,0.3093,0,0.2395,0.2384,0.2401,0.2366,0.2366,0.2352,0.2384,0.2375,0.2435,0.244,0.2533,0.2541,0.2705,0.2612,0.2945,0.2785,0.2938,0.3018,0.3037,0.3039,0.2919,0.3222,0.3507,0.3313,0.3174,0.3167,0.3161,0,0.2506,0.2489,0.2504,0.2486,0.2429,0.2452,0.2439,0.2464,0.2499,0.262,0.2694,0.2851,0.2959,0.3167,0.3268,0.3167,0.3655,0.3537,0.3701,0.3699,0.3704,0.3687,0.3885,0.3904,0.3903,0.3901,0.39,0,0.259,0.2605,0.2558,0.2556,0.2594,0.2544,0.2611,0.2621,0.2707,0.2786,0.2837,0.2959,0.3115,0.334,0.3443,0.3741,0.3828,0.3831,0.3865,0.3727,0.3708,0.3603,0.3487,0.3919,0.3915,0.3912,0.3909,0,0.267,0.2645,0.2656,0.2631,0.2629,0.266,0.2675,0.2731,0.2808,0.2942,0.3002,0.315,0.3414,0.3581,0.3923,0.3984,0.4139,0.4337,0.4143,0.4146,0.4058,0.395,0.4117,0.4022,0.464,0.4643,0.4646,0,0.269,0.2706,0.2704,0.2705,0.2683,0.2714,0.2726,0.2775,0.2837,0.3029,0.3113,0.3401,0.3545,0.4026,0.4225,0.4538,0.4304,0.4624,0.4414,0.4149,0.4056,0.3786,0.367,0.4469,0.447,0.4471,0.4471,0,0.271,0.272,0.2713,0.273,0.2742,0.2756,0.2793,0.2858,0.2935,0.306,0.3226,0.3374,0.3811,0.4034,0.4432,0.4595,0.4353,0.4651,0.4468,0.4065,0.3705,0.3592,0.4029,0.4478,0.4478,0.4477,0.4477,0.4477,0.2705,0.2715,0.271,0.2715,0.2733,0.2748,0.2752,0.2821,0.2913,0.3048,0.3227,0.3423,0.3768,0.4284,0.4433,0.4572,0.4471,0.4466,0.4408,0.4194,0.3949,0.4392,0.4785,0.4786,0.4787,0.4787,0.4788,0,0.2662,0.2668,0.268,0.2669,0.2658,0.2689,0.2739,0.274,0.2802,0.2998,0.3129,0.3471,0.3746,0.404,0.4331,0.4282,0.4119,0.4184,0.3768,0.3708,0.4234,0.4061,0.4202,0.4202,0.4202,0.4202,0.4202,0.4202,0.2636,0.2619,0.2621,0.2565,0.256,0.2534,0.2543,0.2581,0.2697,0.2857,0.3039,0.3223,0.3549,0.3832,0.3885,0.3882,0.3553,0.3487,0.3414,0.3721,0.3737,0.3752,0.356,0.3594,0.3593,0.2733,0.2726,0.2721]},{"header":{"parameterUnit":"m.s-1","parameterCategory":2,"la1":30.2991,"la2":30.254,"lo1":-89.0895,"lo2":-89.0444,"dy":0.0017,"dx":0.0017,"nx":28,"ny":28,"refTime":"2025-08-01T03:00:00:Z","depth":"0","parameterNumber":3,"parameterNumberName":"V-component_of_CURRENTS"},"data":[0,0,0,0,0,0,0,0,0,0,0,0,0,0,0,0,0,0,0,0,0,0,0,0,0,0,0,0,0,0,0,0,0,0,0,0,0,0,0,0,0,0,0,0,0,0,0,0,0,0,0,0,0,0,0,0,0,0,-0.0362,-0.0363,0,-0.0458,-0.0459,-0.046,-0.0535,-0.0536,-0.0537,-0.0538,-0.0561,-0.0561,-0.056,0,0,0,0,0,0,0,0,0,0,0,0,0,-0.0207,-0.0209,-0.0361,-0.0363,-0.0365,-0.0458,-0.0459,-0.046,-0.0535,-0.0536,-0.0537,-0.0539,-0.0561,-0.0561,-0.056,0,0,0,0,0,0,0,0,0,0,0,0,0,-0.0282,-0.021,-0.0361,-0.0416,-0.0422,-0.0458,-0.0459,-0.0461,-0.0535,-0.0536,-0.0538,-0.0539,-0.0561,-0.0561,-0.056,-0.0525,0,0,-0.0558,-0.0558,0,0,0,0,0,0,0,0,-0.0278,-0.0287,-0.0406,-0.0412,-0.0419,-0.049,-0.0414,-0.048,-0.0534,-0.0488,-0.0538,-0.054,-0.0532,-0.0534,-0.0544,-0.0526,-0.0527,-0.0558,-0.0558,-0.0558,-0.0558,0,0,0,0,0,0,0,-0.0272,-0.0283,-0.0396,-0.0408,-0.0416,-0.0424,-0.0437,-0.0426,-0.0495,-0.0492,-0.0499,-0.0515,-0.0534,-0.0544,-0.0545,-0.0527,-0.0558,-0.0558,-0.0558,-0.0557,-0.0492,-0.0491,0,0,0,0,0,0,-0.0269,-0.0279,-0.0393,-0.0399,-0.0355,-0.0426,-0.044,-0.0462,-0.0497,-0.0506,-0.0514,-0.0518,-0.0544,-0.0545,-0.0546,-0.0507,-0.0558,-0.0557,-0.0557,-0.0494,-0.0492,-0.049,0,0,0,0,0,0,-0.0265,-0.0278,-0.0389,-0.0344,-0.0359,-0.0428,-0.0452,-0.0463,-0.0476,-0.0515,-0.0522,-0.0516,-0.0546,-0.0547,-0.0543,-0.0509,-0.0557,-0.0556,-0.0495,-0.0493,-0.0491,-0.0429,0,0,0,0,0,0,-0.026,-0.0276,-0.0272,-0.0344,-0.0362,-0.0399,-0.0451,-0.0464,-0.0486,-0.0493,-0.0518,-0.0523,-0.0547,-0.0544,-0.0543,-0.0509,-0.0556,-0.0497,-0.0494,-0.0492,-0.0433,-0.0425,-0.0418,0,0,0,0,0,-0.0254,-0.0238,-0.0271,-0.0284,-0.036,-0.0398,-0.0406,-0.0458,-0.0484,-0.0477,-0.0507,-0.0522,-0.0526,-0.0543,-0.0542,-0.0506,-0.0498,-0.0495,-0.0492,-0.0436,-0.0426,-0.0418,0,0,0,0,0,0,-0.0148,-0.0247,-0.0284,-0.0294,-0.0341,-0.0412,-0.0406,-0.0447,-0.0465,-0.0469,-0.0508,-0.0513,-0.0499,-0.0507,-0.0524,-0.048,-0.0512,-0.0508,-0.0469,-0.046,-0.0453,-0.041,-0.0556,0,0,0,0,0,-0.0129,-0.0153,-0.024,-0.024,-0.0265,-0.0333,-0.035,-0.0391,-0.0428,-0.0439,-0.0465,-0.0479,-0.0482,-0.0477,-0.0484,-0.0452,-0.0431,-0.0427,-0.042,-0.0414,-0.0377,-0.0324,-0.0308,-0.048,-0.048,-0.048,0,0,-0.0086,-0.0142,-0.0153,-0.0221,-0.0261,-0.0287,-0.0345,-0.0367,-0.038,-0.0433,-0.0437,-0.0456,-0.0471,-0.0452,-0.0443,-0.0454,-0.0356,-0.041,-0.0405,-0.037,-0.0319,-0.0302,-0.0287,-0.0478,-0.0479,-0.0479,0,0,-0.0026,-0.0065,-0.0079,-0.0118,-0.0184,-0.0228,-0.0233,-0.0304,-0.0323,-0.0336,-0.0376,-0.0366,-0.0384,-0.0378,-0.038,-0.0325,-0.0326,-0.0336,-0.0253,-0.0203,-0.0188,-0.0175,-0.0134,-0.0117,-0.0324,-0.0324,-0.0324,0,0.0027,-0.0011,-0.0077,-0.0103,-0.0123,-0.0201,-0.0209,-0.0237,-0.0294,-0.0283,-0.0327,-0.0315,-0.034,-0.0287,-0.0285,-0.0304,-0.0284,-0.029,-0.0192,-0.0178,-0.0165,-0.0126,-0.0108,-0.032,-0.0321,-0.0321,-0.0321,0,0.005,0.0031,0.0031,-0.004,-0.0059,-0.0072,-0.0136,-0.014,-0.0176,-0.0201,-0.0167,-0.0196,-0.0176,-0.0191,-0.0229,-0.0142,-0.0162,-0.0197,-0.0212,-0.0144,-0.0108,-0.009,-0.0315,-0.0317,-0.0318,-0.0318,0,0,0.012,0.0055,0.0052,0.0046,-0.0029,-0.0034,-0.0041,-0.0055,-0.0019,-0.0063,0.0001,-0.0024,-0.0024,-0.0022,-0.005,-0.0015,0.0069,-0.0064,-0.0063,-0.0017,0.018,0.0136,0.0151,0.0044,0.0048,0.0051,0.0165,0,0.0151,0.0134,0.0088,0.0102,0.0091,0.0045,0.0063,0.0054,0.0043,0.0091,0.0084,0.0127,0.0035,0.0067,0.0086,0.0078,0.012,0.0042,0.0104,0.0107,0.0064,0.0172,0.0161,0.026,0.0182,0.0185,0.0187,0,0.0165,0.0154,0.0164,0.0183,0.018,0.0185,0.0225,0.0229,0.0266,0.0278,0.0315,0.0305,0.036,0.0273,0.0317,0.0268,0.0243,0.0225,0.0228,0.0188,0.0098,0.0181,0.0294,0.0082,0.0214,0.0211,0.021,0,0.0227,0.0216,0.0238,0.023,0.023,0.0256,0.0264,0.029,0.0339,0.041,0.048,0.0509,0.0565,0.0535,0.0466,0.0409,0.0514,0.0431,0.0376,0.0371,0.038,0.037,0.0307,0.0492,0.0492,0.0492,0.0491,0,0.0262,0.0284,0.0275,0.0283,0.0355,0.033,0.042,0.0438,0.0513,0.0612,0.0592,0.0693,0.0636,0.0661,0.0565,0.0537,0.0596,0.0438,0.0419,0.0397,0.0388,0.0214,0.0086,0.0496,0.0495,0.0494,0.0493,0,0.0312,0.0298,0.0335,0.0357,0.0377,0.0425,0.05,0.0579,0.0635,0.0771,0.0812,0.0877,0.0908,0.0831,0.0814,0.0693,0.0545,0.0617,0.0588,0.0563,0.0278,0.0155,0.0139,0.0059,0.0594,0.0594,0.0594,0,0.0324,0.0343,0.0392,0.0433,0.0441,0.0509,0.0574,0.0633,0.072,0.0877,0.0969,0.105,0.1112,0.1067,0.0896,0.0776,0.0577,0.0658,0.0543,0.0305,0.0154,0.0072,-0.0001,0.058,0.0579,0.0579,0.0579,0,0.0354,0.0377,0.0412,0.0494,0.0562,0.0654,0.0742,0.0831,0.0927,0.1051,0.1206,0.1272,0.1241,0.1144,0.0969,0.0837,0.0493,0.0648,0.0433,0.0182,0.0067,-0.0035,0.044,0.0578,0.0578,0.0578,0.0578,0.0578,0.0377,0.0422,0.0475,0.0561,0.065,0.0772,0.085,0.0969,0.1118,0.13,0.1361,0.1499,0.1345,0.1114,0.0888,0.0475,0.0475,0.032,0.0208,0.0162,0.0029,0.049,0.0568,0.0569,0.0569,0.0569,0.0569,0,0.0396,0.0455,0.0538,0.0643,0.0747,0.079,0.0952,0.104,0.1204,0.1408,0.1542,0.1601,0.131,0.0996,0.0485,0.0117,-0.0023,-0.0103,-0.0232,-0.0272,0.018,0.0115,0.0062,0.0062,0.0062,0.0063,0.0063,0.0063,0.0409,0.0485,0.0537,0.0692,0.0779,0.0914,0.1001,0.1146,0.1306,0.1552,0.1707,0.1836,0.164,0.0587,-0.0159,-0.0338,-0.0629,-0.0678,-0.0813,-0.0559,-0.0529,-0.0501,-0.0592,-0.0793,-0.0794,-0.1212,-0.1217,-0.1221]}],[{"header":{"parameterUnit":"m.s-1","parameterCategory":2,"la1":30.2991,"la2":30.254,"lo1":-89.0895,"lo2":-89.0444,"dy":0.0017,"dx":0.0017,"nx":28,"ny":28,"refTime":"2025-08-01T03:00:00:Z","depth":"2","parameterNumber":2,"parameterNumberName":"U-component_of_CURRENTS"},"data":[0,0,0,0,0,0,0,0,0,0,0,0,0,0,0,0,0,0,0,0,0,0,0,0,0,0,0,0,0,0,0,0,0,0,0,0,0,0,0,0,0,0,0,0,0,0,0,0,0,0,0,0,0,0,0,0,0,0,0.2034,0.2035,0,0.2124,0.2125,0.2126,0.2111,0.211,0.2108,0.2107,0.2132,0.2133,0.2135,0,0,0,0,0,0,0,0,0,0,0,0,0,0.1883,0.1886,0.2034,0.2035,0.2036,0.2124,0.2125,0.2126,0.2111,0.211,0.2108,0.2107,0.2131,0.2133,0.2135,0,0,0,0,0,0,0,0,0,0,0,0,0,0.1956,0.1886,0.2033,0.2041,0.2043,0.2124,0.2125,0.2126,0.2112,0.211,0.2108,0.2106,0.213,0.2133,0.2136,0.2194,0,0,0.2145,0.2146,0,0,0,0,0,0,0,0,0.1952,0.1961,0.2039,0.2041,0.2043,0.2106,0.2081,0.2146,0.2112,0.2083,0.2107,0.2105,0.212,0.2124,0.2143,0.2195,0.2196,0.2145,0.2147,0.2148,0.2149,0,0,0,0,0,0,0,0.1947,0.1958,0.2067,0.204,0.2043,0.2052,0.206,0.2094,0.2109,0.2086,0.2085,0.21,0.212,0.214,0.2143,0.2196,0.2145,0.2147,0.2149,0.215,0.2261,0.2262,0,0,0,0,0,0,0.1942,0.1953,0.2064,0.207,0.1994,0.2057,0.2065,0.2086,0.211,0.2113,0.2101,0.2099,0.2136,0.214,0.2144,0.2184,0.2148,0.215,0.2152,0.226,0.2261,0.2262,0,0,0,0,0,0,0.1938,0.1951,0.2061,0.2015,0.2029,0.2062,0.2085,0.2089,0.211,0.2123,0.2124,0.2118,0.2135,0.214,0.2172,0.2185,0.2152,0.2154,0.2258,0.226,0.2262,0.2282,0,0,0,0,0,0,0.1934,0.1949,0.1971,0.2015,0.2032,0.2108,0.2088,0.2092,0.2123,0.212,0.2138,0.2138,0.2134,0.2168,0.2175,0.2188,0.2157,0.2257,0.2259,0.2261,0.228,0.2285,0.2289,0,0,0,0,0,0.1928,0.1956,0.1971,0.1985,0.2058,0.211,0.2119,0.2133,0.2126,0.2142,0.215,0.2137,0.2187,0.2172,0.218,0.2194,0.2256,0.2258,0.2261,0.2278,0.2284,0.2289,0,0,0,0,0,0,0.1898,0.1959,0.1976,0.2021,0.2065,0.2108,0.213,0.2144,0.2168,0.2162,0.2164,0.2166,0.2198,0.2202,0.2185,0.2233,0.2216,0.2221,0.2227,0.2232,0.2236,0.2238,0.2159,0,0,0,0,0,0.1907,0.1942,0.2,0.2036,0.206,0.2101,0.2126,0.214,0.2166,0.2175,0.2188,0.2201,0.222,0.2228,0.2249,0.2286,0.2316,0.2298,0.2302,0.2305,0.2313,0.2387,0.2399,0.2272,0.2272,0.2271,0,0,0.19,0.1944,0.196,0.2033,0.2067,0.2099,0.211,0.2152,0.2174,0.2176,0.2208,0.2224,0.2236,0.2266,0.228,0.2267,0.2357,0.2309,0.2311,0.2318,0.2391,0.2404,0.2415,0.2273,0.2273,0.2273,0,0,0.1896,0.1951,0.1971,0.2014,0.2077,0.2109,0.2123,0.2176,0.2195,0.2236,0.2238,0.2268,0.2296,0.2311,0.2318,0.2366,0.2382,0.2366,0.2385,0.2457,0.2468,0.2478,0.2531,0.2546,0.2362,0.2362,0.2362,0,0.1882,0.1926,0.1985,0.2018,0.2051,0.211,0.2133,0.2174,0.2228,0.2254,0.2241,0.231,0.2317,0.2362,0.2367,0.2376,0.2415,0.2361,0.2463,0.2474,0.2484,0.2535,0.2551,0.2364,0.2364,0.2363,0.2363,0,0.1886,0.1929,0.1948,0.2008,0.2053,0.209,0.2153,0.2198,0.2227,0.2264,0.2326,0.2352,0.2389,0.2395,0.2389,0.2464,0.2468,0.2464,0.2448,0.2498,0.2549,0.2565,0.2366,0.2365,0.2365,0.2364,0,0,0.1822,0.1927,0.1932,0.1963,0.2052,0.2085,0.2143,0.2214,0.2256,0.231,0.2362,0.2402,0.2432,0.2445,0.246,0.2512,0.2608,0.2515,0.2518,0.2565,0.2765,0.2614,0.2618,0.2628,0.2631,0.2633,0.2771,0,0.1801,0.1854,0.1917,0.1963,0.1995,0.2078,0.2127,0.2201,0.2268,0.2338,0.2395,0.2451,0.2448,0.2472,0.2529,0.2597,0.2653,0.2571,0.2712,0.2716,0.2575,0.2632,0.237,0.2457,0.2787,0.279,0.2792,0,0.1769,0.1818,0.1859,0.1951,0.1972,0.201,0.2112,0.217,0.2291,0.2345,0.2428,0.2481,0.2576,0.2559,0.2714,0.2665,0.2717,0.2762,0.2768,0.2632,0.2596,0.2463,0.2475,0.2819,0.2817,0.2815,0.2813,0,0.1685,0.1771,0.1805,0.1836,0.1948,0.1983,0.2047,0.2166,0.2229,0.2367,0.2422,0.2545,0.2612,0.2711,0.2799,0.2774,0.2961,0.2938,0.2855,0.2846,0.265,0.2616,0.3049,0.3049,0.3049,0.3048,0.3048,0,0.1637,0.1663,0.177,0.1789,0.1835,0.1932,0.2001,0.2089,0.2219,0.2304,0.2423,0.2514,0.2657,0.2771,0.2839,0.2896,0.3003,0.2872,0.2875,0.2646,0.2612,0.2943,0.2928,0.3053,0.3052,0.3051,0.305,0,0.1549,0.1615,0.1658,0.1765,0.1798,0.1833,0.1967,0.2028,0.2158,0.2277,0.2324,0.252,0.2683,0.28,0.2974,0.2928,0.3009,0.3001,0.2707,0.267,0.2837,0.2823,0.2924,0.2919,0.2916,0.2913,0.2911,0,0.1516,0.1529,0.1622,0.1653,0.1705,0.1779,0.1837,0.198,0.2062,0.2282,0.2338,0.253,0.2657,0.2832,0.2797,0.2862,0.3,0.2638,0.2518,0.2833,0.2828,0.2819,0.2809,0.2286,0.2279,0.2273,0.2268,0,0.1461,0.149,0.1535,0.1596,0.165,0.1712,0.1815,0.1863,0.2046,0.2156,0.2353,0.2472,0.2586,0.2536,0.2553,0.2548,0.2594,0.2511,0.2964,0.2328,0.2234,0.2228,0.224,0.2215,0.222,0.2224,0.2227,0.2229,0.1427,0.1442,0.1507,0.156,0.1608,0.1665,0.1699,0.1817,0.1932,0.2065,0.2245,0.2307,0.2296,0.2179,0.2167,0.2115,0.2266,0.2172,0.2191,0.2216,0.2086,0.1988,0.19,0.1903,0.1906,0.1909,0.1911,0,0.1417,0.1449,0.1482,0.1541,0.1558,0.1616,0.1702,0.1725,0.183,0.1893,0.2019,0.1802,0.1773,0.1829,0.1631,0.1593,0.1581,0.1581,0.1565,0.1615,0.1661,0.1505,0.1164,0.1163,0.1162,0.1161,0,0,0.142,0.1451,0.1469,0.1494,0.1526,0.1548,0.1581,0.161,0.1632,0.1572,0.1523,0.1627,0.1681,0.1371,0.1333,0.1247,0.143,0.1191,0.1771,0.1798,0.1843,0.1963,0.1772,0,0,0,0,0]},{"header":{"parameterUnit":"m.s-1","parameterCategory":2,"la1":30.2991,"la2":30.254,"lo1":-89.0895,"lo2":-89.0444,"dy":0.0017,"dx":0.0017,"nx":28,"ny":28,"refTime":"2025-08-01T03:00:00:Z","depth":"2","parameterNumber":3,"parameterNumberName":"V-component_of_CURRENTS"},"data":[0,0,0,0,0,0,0,0,0,0,0,0,0,0,0,0,0,0,0,0,0,0,0,0,0,0,0,0,0,0,0,0,0,0,0,0,0,0,0,0,0,0,0,0,0,0,0,0,0,0,0,0,0,0,0,0,0,0,-0.0122,-0.0123,0,-0.0154,-0.0154,-0.0154,-0.0196,-0.0196,-0.0197,-0.0198,-0.0251,-0.0252,-0.0253,0,0,0,0,0,0,0,0,0,0,0,0,0,-0.0109,-0.0109,-0.0122,-0.0123,-0.0123,-0.0154,-0.0154,-0.0155,-0.0195,-0.0196,-0.0197,-0.0198,-0.0251,-0.0252,-0.0253,0,0,0,0,0,0,0,0,0,0,0,0,0,-0.0125,-0.0109,-0.0122,-0.0147,-0.015,-0.0154,-0.0154,-0.0155,-0.0195,-0.0196,-0.0197,-0.0198,-0.025,-0.0252,-0.0253,-0.024,0,0,-0.0256,-0.0257,0,0,0,0,0,0,0,0,-0.0124,-0.0126,-0.0143,-0.0146,-0.0148,-0.0172,-0.0169,-0.0184,-0.0195,-0.0178,-0.0198,-0.0199,-0.0226,-0.0229,-0.0232,-0.0242,-0.0244,-0.0256,-0.0257,-0.0258,-0.0258,0,0,0,0,0,0,0,-0.0123,-0.0125,-0.0135,-0.0144,-0.0147,-0.0161,-0.0164,-0.0172,-0.0196,-0.0179,-0.0183,-0.0186,-0.0228,-0.0231,-0.0234,-0.0245,-0.0256,-0.0257,-0.0258,-0.0259,-0.0266,-0.0265,0,0,0,0,0,0,-0.0117,-0.0123,-0.0134,-0.0136,-0.0139,-0.016,-0.0164,-0.0163,-0.0196,-0.0201,-0.0185,-0.0188,-0.0228,-0.0232,-0.0236,-0.0237,-0.0258,-0.0259,-0.0259,-0.0266,-0.0265,-0.0265,0,0,0,0,0,0,-0.0117,-0.0118,-0.0132,-0.0131,-0.0134,-0.0159,-0.0158,-0.0163,-0.0162,-0.02,-0.0206,-0.0179,-0.0229,-0.0234,-0.0239,-0.0239,-0.0259,-0.026,-0.0267,-0.0266,-0.0265,-0.0229,0,0,0,0,0,0,-0.0116,-0.0117,-0.0107,-0.013,-0.0133,-0.0125,-0.0157,-0.0163,-0.0163,-0.0167,-0.0196,-0.0203,-0.0231,-0.0237,-0.024,-0.0241,-0.0261,-0.0267,-0.0266,-0.0265,-0.0231,-0.0228,-0.0224,0,0,0,0,0,-0.0116,-0.0097,-0.0106,-0.0107,-0.0121,-0.0124,-0.0127,-0.0149,-0.0162,-0.0153,-0.0177,-0.0201,-0.0234,-0.0237,-0.0241,-0.0242,-0.0268,-0.0267,-0.0266,-0.0233,-0.0228,-0.0224,0,0,0,0,0,0,-0.008,-0.01,-0.0111,-0.0097,-0.0106,-0.0131,-0.0122,-0.0138,-0.0148,-0.015,-0.0189,-0.0196,-0.0204,-0.022,-0.0223,-0.0241,-0.0257,-0.0256,-0.023,-0.0226,-0.0223,-0.0208,-0.0262,0,0,0,0,0,-0.0068,-0.0062,-0.0082,-0.007,-0.0071,-0.0093,-0.0095,-0.0109,-0.0125,-0.0131,-0.0152,-0.0176,-0.0201,-0.0211,-0.0228,-0.0229,-0.0245,-0.0234,-0.023,-0.0227,-0.0217,-0.0237,-0.0234,-0.0261,-0.0261,-0.0261,0,0,-0.0054,-0.006,-0.0058,-0.0062,-0.007,-0.0071,-0.0096,-0.009,-0.0096,-0.0133,-0.0136,-0.016,-0.0197,-0.0208,-0.0213,-0.0222,-0.0228,-0.0225,-0.0223,-0.0214,-0.0235,-0.0233,-0.023,-0.026,-0.026,-0.026,0,0,-0.003,-0.0023,-0.0019,-0.002,-0.0026,-0.0038,-0.0033,-0.0048,-0.0058,-0.0059,-0.0099,-0.0116,-0.0139,-0.0173,-0.0195,-0.0177,-0.0208,-0.0185,-0.0157,-0.0177,-0.0175,-0.0173,-0.0193,-0.0194,-0.0185,-0.0185,-0.0185,0,-0.0016,-0.001,-0.0015,-0.0011,-0.0007,-0.0022,-0.0015,-0.0025,-0.0041,-0.0043,-0.0053,-0.0093,-0.0125,-0.0156,-0.0158,-0.017,-0.0184,-0.0173,-0.0173,-0.0171,-0.017,-0.0191,-0.0192,-0.0183,-0.0183,-0.0183,-0.0183,0,-0.0003,0.001,0.002,0.0016,0.0024,0.0035,0.002,0.0028,0.002,0.0005,-0.0007,-0.0047,-0.0069,-0.0091,-0.0122,-0.0136,-0.0149,-0.0166,-0.0183,-0.0166,-0.0189,-0.019,-0.018,-0.0181,-0.0181,-0.0182,0,0,-0.0005,0.002,0.0022,0.0036,0.0043,0.0052,0.0058,0.0057,0.0068,0.0048,0.0055,0.0001,-0.0009,-0.0033,-0.0075,-0.01,-0.0115,-0.0126,-0.0128,-0.0145,-0.0156,-0.0175,-0.018,-0.0131,-0.0131,-0.0131,-0.0177,0,-0.0,0.0024,0.0033,0.0062,0.0077,0.0084,0.0095,0.0098,0.01,0.0108,0.0063,0.0054,0.0007,0.0001,-0.0031,-0.0086,-0.0117,-0.0101,-0.0171,-0.0172,-0.0192,-0.0181,-0.0197,-0.0239,-0.0179,-0.0179,-0.0179,0,0.0,0.002,0.005,0.0098,0.0106,0.012,0.0157,0.0166,0.0169,0.0174,0.0162,0.0136,0.0097,0.0057,-0.0026,-0.0011,-0.0077,-0.0128,-0.0131,-0.016,-0.0194,-0.0247,-0.0245,-0.0182,-0.0182,-0.0182,-0.0182,0,0.0005,0.0036,0.0067,0.008,0.0122,0.0142,0.0164,0.0185,0.0213,0.0218,0.0246,0.0196,0.0188,0.0103,0.0012,-0.0007,-0.0075,-0.0116,-0.0201,-0.0203,-0.0235,-0.024,-0.018,-0.018,-0.018,-0.018,-0.018,0,0.0017,0.0046,0.0072,0.0093,0.0142,0.0162,0.0216,0.0236,0.0272,0.0323,0.0282,0.0318,0.0201,0.0154,0.0045,-0.0066,-0.0047,-0.019,-0.0214,-0.0224,-0.0227,-0.0191,-0.0192,-0.0181,-0.0181,-0.0181,-0.018,0,0.0047,0.0053,0.0098,0.0137,0.0151,0.0192,0.0263,0.031,0.0332,0.04,0.0408,0.041,0.0363,0.0239,0.0114,-0.0011,-0.0127,-0.0177,-0.0179,-0.0202,-0.0258,-0.0256,-0.0288,-0.0289,-0.0289,-0.029,-0.0291,0,0.0081,0.0097,0.0137,0.0174,0.0199,0.0253,0.0305,0.034,0.0401,0.0471,0.0518,0.0497,0.0521,0.0334,0.0106,-0.0091,-0.0104,-0.0253,-0.0303,-0.0247,-0.0268,-0.0264,-0.0262,-0.0336,-0.0337,-0.0338,-0.0338,0,0.0153,0.0153,0.019,0.0251,0.0303,0.0371,0.0444,0.0499,0.0557,0.063,0.0741,0.0765,0.0574,0.038,0.0085,-0.0056,-0.0224,-0.0275,-0.0209,-0.0302,-0.0296,-0.0314,-0.031,-0.0345,-0.0344,-0.0344,-0.0343,-0.0343,0.0215,0.0254,0.029,0.0355,0.0414,0.051,0.0586,0.0682,0.0805,0.093,0.092,0.092,0.0608,0.0231,0.0013,-0.0245,-0.0254,-0.0376,-0.0373,-0.0369,-0.0362,-0.0357,-0.0417,-0.0417,-0.0417,-0.0416,-0.0416,0,0.0301,0.0338,0.0403,0.048,0.0565,0.0576,0.0702,0.08,0.0977,0.1023,0.1123,0.0796,0.0569,0.0258,-0.0149,-0.0387,-0.0394,-0.0435,-0.0415,-0.0409,-0.0404,-0.0397,-0.0462,-0.0462,-0.0462,-0.0462,0,0,0.0353,0.0426,0.0453,0.0605,0.0666,0.0795,0.0877,0.1033,0.109,0.1136,0.1068,0.0999,0.0558,0.0247,-0.0061,-0.0251,-0.0259,-0.0277,-0.023,-0.0166,-0.0156,-0.0376,-0.036,0,0,0,0,0]}],[{"header":{"parameterUnit":"m.s-1","parameterCategory":2,"la1":30.2991,"la2":30.254,"lo1":-89.0895,"lo2":-89.0444,"dy":0.0017,"dx":0.0017,"nx":28,"ny":28,"refTime":"2025-08-01T03:00:00:Z","depth":"4","parameterNumber":2,"parameterNumberName":"U-component_of_CURRENTS"},"data":[0,0,0,0,0,0,0,0,0,0,0,0,0,0,0,0,0,0,0,0,0,0,0,0,0,0,0,0,0,0,0,0,0,0,0,0,0,0,0,0,0,0,0,0,0,0,0,0,0,0,0,0,0,0,0,0,0,0,0.0481,0.0482,0,0.0559,0.0561,0.0562,0.0639,0.064,0.0641,0.0641,0.0807,0.0811,0.0815,0,0,0,0,0,0,0,0,0,0,0,0,0,0.042,0.0421,0.0481,0.0482,0.0482,0.0559,0.0561,0.0562,0.0639,0.064,0.0641,0.0642,0.0806,0.0811,0.0815,0,0,0,0,0,0,0,0,0,0,0,0,0,0.0471,0.0421,0.0481,0.0527,0.0532,0.0559,0.0561,0.0563,0.0639,0.064,0.0641,0.0642,0.0805,0.081,0.0816,0.0831,0,0,0.0833,0.0836,0,0,0,0,0,0,0,0,0.0468,0.0474,0.052,0.0524,0.0529,0.0587,0.06,0.0656,0.0639,0.0602,0.0641,0.0642,0.0739,0.075,0.0767,0.0839,0.0846,0.0834,0.0837,0.084,0.0841,0,0,0,0,0,0,0,0.0464,0.0471,0.0516,0.052,0.0526,0.0551,0.056,0.0611,0.0669,0.0606,0.061,0.0613,0.0743,0.0761,0.0771,0.0849,0.0834,0.0839,0.0842,0.0845,0.1028,0.1029,0,0,0,0,0,0,0.0445,0.0467,0.0514,0.0518,0.0496,0.0551,0.0561,0.0571,0.0666,0.068,0.0612,0.0616,0.0751,0.0765,0.0778,0.0892,0.084,0.0845,0.0848,0.1026,0.1028,0.103,0,0,0,0,0,0,0.0443,0.0448,0.051,0.0491,0.05,0.055,0.0561,0.0572,0.0642,0.0669,0.0686,0.0677,0.0752,0.077,0.086,0.0896,0.0848,0.0853,0.1025,0.1027,0.1029,0.1063,0,0,0,0,0,0,0.0441,0.0447,0.0489,0.049,0.05,0.0535,0.056,0.0572,0.0637,0.0645,0.073,0.0743,0.0754,0.0851,0.0865,0.0903,0.0857,0.1023,0.1026,0.1028,0.106,0.1066,0.1071,0,0,0,0,0,0.0439,0.0457,0.0491,0.0498,0.0542,0.0534,0.0543,0.0585,0.0639,0.0658,0.0732,0.0743,0.0878,0.0858,0.0874,0.0913,0.1022,0.1025,0.1028,0.1058,0.1065,0.1071,0,0,0,0,0,0,0.0447,0.0466,0.0503,0.053,0.0544,0.0546,0.0584,0.0618,0.0693,0.0737,0.0772,0.079,0.0873,0.0894,0.0871,0.0972,0.0948,0.0954,0.0965,0.0972,0.0977,0.0976,0.0862,0,0,0,0,0,0.047,0.0504,0.0507,0.0541,0.0552,0.059,0.0614,0.0641,0.0684,0.0722,0.078,0.0846,0.0889,0.0935,0.0971,0.1045,0.1025,0.1077,0.1082,0.1087,0.1096,0.11,0.1106,0.104,0.104,0.104,0,0,0.0489,0.0503,0.053,0.0549,0.0579,0.0587,0.0609,0.0652,0.0679,0.073,0.0824,0.0873,0.0912,0.0977,0.1017,0.101,0.1088,0.1091,0.1095,0.1102,0.1103,0.111,0.1115,0.1042,0.1042,0.1042,0,0,0.0492,0.0554,0.0568,0.0583,0.0622,0.0634,0.0656,0.0695,0.0739,0.0817,0.0856,0.0933,0.1016,0.104,0.1062,0.1127,0.1111,0.1149,0.1191,0.1194,0.1199,0.1203,0.1151,0.1151,0.116,0.116,0.116,0,0.052,0.0538,0.057,0.0575,0.0602,0.0657,0.067,0.0707,0.0777,0.082,0.0854,0.0998,0.1036,0.1103,0.1125,0.114,0.1125,0.1161,0.12,0.1204,0.1208,0.1154,0.1152,0.1162,0.1162,0.1162,0.1162,0,0.0504,0.0549,0.0558,0.0593,0.0618,0.0648,0.0681,0.0745,0.0825,0.086,0.0973,0.1039,0.1127,0.1144,0.1162,0.122,0.1191,0.1196,0.1178,0.1216,0.1156,0.1155,0.1165,0.1165,0.1164,0.1163,0,0,0.0488,0.054,0.0556,0.0589,0.0645,0.0657,0.0716,0.0766,0.0831,0.0923,0.1008,0.1095,0.117,0.1201,0.1246,0.1259,0.1262,0.1256,0.1255,0.1194,0.1236,0.1177,0.1168,0.1283,0.1284,0.1285,0.117,0,0.0479,0.0503,0.0531,0.0584,0.0602,0.0677,0.0726,0.0793,0.0866,0.0959,0.1049,0.1148,0.1176,0.1259,0.1278,0.1275,0.1266,0.129,0.1218,0.1214,0.115,0.1169,0.1288,0.1168,0.1168,0.1168,0.1167,0,0.0444,0.0476,0.0517,0.0604,0.0624,0.0672,0.0788,0.0839,0.0951,0.102,0.1134,0.1205,0.1285,0.1305,0.1305,0.1326,0.1292,0.1267,0.1262,0.1199,0.1154,0.1133,0.1164,0.1164,0.1164,0.1165,0.1165,0,0.0406,0.0467,0.0514,0.0542,0.0634,0.07,0.0778,0.088,0.0944,0.1083,0.1145,0.1246,0.1325,0.1313,0.1284,0.131,0.1235,0.1254,0.115,0.1142,0.1212,0.1209,0.1233,0.1233,0.1233,0.1233,0.1234,0,0.0376,0.0418,0.0519,0.0551,0.0644,0.0717,0.0834,0.0914,0.1037,0.1094,0.1206,0.1246,0.1338,0.1315,0.1276,0.1193,0.1224,0.1153,0.1122,0.1223,0.1224,0.1207,0.1206,0.1229,0.123,0.1231,0.1231,0,0.033,0.0389,0.0446,0.0572,0.0627,0.0709,0.0881,0.0939,0.106,0.1138,0.1192,0.1265,0.1244,0.1253,0.1212,0.1173,0.1097,0.1048,0.1109,0.1083,0.0999,0.1001,0.0945,0.0942,0.0939,0.0937,0.0936,0,0.0312,0.0333,0.0466,0.053,0.0607,0.0743,0.0821,0.0957,0.0997,0.1099,0.1102,0.1155,0.1183,0.1053,0.1075,0.0997,0.099,0.0938,0.1032,0.1,0.0976,0.0982,0.0987,0.0932,0.0932,0.0931,0.093,0,0.0282,0.0334,0.0389,0.0508,0.0604,0.069,0.0809,0.0831,0.0941,0.1044,0.1023,0.1036,0.1006,0.0995,0.0954,0.0888,0.0981,0.0915,0.0921,0.1009,0.0985,0.0964,0.0972,0.0922,0.0923,0.0924,0.0925,0,0.027,0.03,0.0377,0.0474,0.059,0.0628,0.0685,0.0732,0.0792,0.0905,0.0869,0.09,0.097,0.0929,0.0852,0.0836,0.0854,0.084,0.0851,0.086,0.0895,0.0856,0.0725,0,0,0,0,0,0.0266,0.0286,0.0352,0.0435,0.0536,0.06,0.067,0.0702,0.0786,0.0753,0.0834,0.0801,0.0791,0.0786,0.0757,0.0804,0.0836,0.0765,0.082,0.0878,0.0887,0.0942,0,0,0,0,0,0,0.0261,0.0313,0.0318,0.0387,0.045,0.0517,0.056,0.0583,0.058,0.0681,0.0668,0.0775,0.0755,0.0816,0.0754,0.0758,0.0778,0.0805,0.0803,0.0872,0.0881,0.0888,0.0948,0,0,0,0,0]},{"header":{"parameterUnit":"m.s-1","parameterCategory":2,"la1":30.2991,"la2":30.254,"lo1":-89.0895,"lo2":-89.0444,"dy":0.0017,"dx":0.0017,"nx":28,"ny":28,"refTime":"2025-08-01T03:00:00:Z","depth":"4","parameterNumber":3,"parameterNumberName":"V-component_of_CURRENTS"},"data":[0,0,0,0,0,0,0,0,0,0,0,0,0,0,0,0,0,0,0,0,0,0,0,0,0,0,0,0,0,0,0,0,0,0,0,0,0,0,0,0,0,0,0,0,0,0,0,0,0,0,0,0,0,0,0,0,0,0,0.0185,0.0185,0,0.0145,0.0145,0.0144,0.0148,0.0149,0.015,0.015,0.0032,0.0028,0.0024,0,0,0,0,0,0,0,0,0,0,0,0,0,0.0218,0.0218,0.0185,0.0185,0.0185,0.0145,0.0145,0.0144,0.0148,0.0149,0.015,0.0151,0.0033,0.0029,0.0024,0,0,0,0,0,0,0,0,0,0,0,0,0,0.0192,0.0218,0.0185,0.0184,0.0183,0.0146,0.0145,0.0144,0.0147,0.0149,0.015,0.0151,0.0035,0.0029,0.0023,-0.0038,0,0,0.0005,0.0003,0,0,0,0,0,0,0,0,0.0193,0.019,0.0184,0.0184,0.0183,0.0155,0.0113,0.008,0.0147,0.0158,0.015,0.0152,0.0066,0.0058,0.0046,-0.0043,-0.0049,0.0005,0.0001,-0.0001,-0.0003,0,0,0,0,0,0,0,0.0195,0.0192,0.0167,0.0184,0.0183,0.0169,0.0167,0.0107,0.0103,0.0158,0.0158,0.0157,0.0066,0.0051,0.0043,-0.005,0.0005,-0.0,-0.0004,-0.0006,-0.0201,-0.0202,0,0,0,0,0,0,0.0206,0.0193,0.0168,0.0166,0.0194,0.0168,0.0165,0.0161,0.0105,0.0099,0.0156,0.0158,0.0061,0.005,0.0038,-0.0023,-0.0001,-0.0007,-0.001,-0.0199,-0.0201,-0.0203,0,0,0,0,0,0,0.0206,0.0204,0.017,0.0181,0.0176,0.0167,0.0161,0.0159,0.0148,0.0105,0.0098,0.0148,0.0061,0.0047,-0.0012,-0.0028,-0.0009,-0.0015,-0.0197,-0.02,-0.0202,-0.0156,0,0,0,0,0,0,0.0207,0.0204,0.0202,0.0182,0.0176,0.0154,0.016,0.0158,0.0146,0.0148,0.0094,0.0085,0.0061,-0.0003,-0.0018,-0.0036,-0.0019,-0.0195,-0.0198,-0.0201,-0.0156,-0.0157,-0.0158,0,0,0,0,0,0.0209,0.0206,0.0202,0.0199,0.0174,0.0154,0.0149,0.0145,0.0145,0.0138,0.0101,0.0087,-0.0034,-0.001,-0.0027,-0.0046,-0.0193,-0.0197,-0.0201,-0.0155,-0.0157,-0.0158,0,0,0,0,0,0,0.021,0.0205,0.0201,0.0194,0.0177,0.0156,0.0147,0.014,0.0105,0.01,0.0065,0.0051,-0.0004,-0.0043,-0.0015,-0.0115,-0.0117,-0.0124,-0.0076,-0.0078,-0.0079,-0.0062,-0.0024,0,0,0,0,0,0.0211,0.0212,0.0196,0.0187,0.0179,0.0159,0.0149,0.0142,0.0112,0.0099,0.0058,0.0007,-0.0037,-0.0067,-0.0116,-0.0178,-0.0194,-0.0205,-0.0206,-0.0206,-0.0206,-0.0243,-0.0246,-0.0215,-0.0215,-0.0215,0,0,0.0209,0.0205,0.0205,0.0188,0.0172,0.0166,0.0156,0.0136,0.0134,0.0086,0.0052,-0.0,-0.0054,-0.0109,-0.0139,-0.0141,-0.0223,-0.0211,-0.021,-0.021,-0.0247,-0.025,-0.0252,-0.0217,-0.0217,-0.0217,0,0,0.0216,0.0198,0.0209,0.0195,0.0176,0.0161,0.0156,0.0124,0.0115,0.0067,0.004,-0.0015,-0.0101,-0.0128,-0.0155,-0.02,-0.0224,-0.0231,-0.0225,-0.0261,-0.0263,-0.0264,-0.0272,-0.0275,-0.0235,-0.0234,-0.0234,0,0.0218,0.0222,0.0205,0.0207,0.0197,0.0163,0.0162,0.0146,0.0097,0.0079,0.006,-0.0059,-0.0102,-0.015,-0.0166,-0.0198,-0.0221,-0.0206,-0.0258,-0.026,-0.0263,-0.0271,-0.0274,-0.0233,-0.0233,-0.0233,-0.0233,0,0.0242,0.0235,0.0232,0.023,0.0214,0.0198,0.0177,0.0147,0.0114,0.0093,0.0025,-0.0043,-0.0114,-0.0139,-0.0168,-0.0218,-0.0227,-0.0246,-0.0241,-0.0262,-0.027,-0.0275,-0.023,-0.0231,-0.0231,-0.0232,0,0,0.0275,0.0257,0.026,0.0248,0.022,0.0206,0.019,0.0163,0.0148,0.0085,0.0052,-0.003,-0.0083,-0.0118,-0.0169,-0.0204,-0.0237,-0.0241,-0.0243,-0.0224,-0.0305,-0.0292,-0.0296,-0.027,-0.0271,-0.0272,-0.0295,0,0.0299,0.0308,0.0296,0.0284,0.0271,0.0231,0.022,0.0188,0.0145,0.0099,0.0034,-0.0024,-0.0066,-0.0119,-0.016,-0.0224,-0.0252,-0.0228,-0.0309,-0.0311,-0.0277,-0.0302,-0.0276,-0.0298,-0.03,-0.03,-0.0301,0,0.033,0.0326,0.0331,0.029,0.0284,0.0278,0.023,0.0214,0.0157,0.0117,0.0048,-0.0011,-0.0081,-0.0118,-0.0215,-0.0205,-0.0256,-0.0294,-0.0296,-0.0304,-0.0307,-0.0283,-0.031,-0.0309,-0.0308,-0.0308,-0.0307,0,0.0348,0.0342,0.0343,0.0333,0.0297,0.0288,0.0264,0.0216,0.0201,0.0123,0.009,-0.0001,-0.0057,-0.0136,-0.0226,-0.0233,-0.032,-0.0333,-0.0357,-0.0356,-0.0376,-0.0374,-0.0394,-0.0394,-0.0394,-0.0394,-0.0394,0,0.0356,0.0353,0.0353,0.0348,0.0342,0.0305,0.029,0.0249,0.0204,0.0181,0.0095,0.0046,-0.0071,-0.014,-0.0218,-0.0299,-0.0314,-0.0357,-0.0368,-0.0356,-0.0352,-0.0378,-0.0376,-0.0395,-0.0394,-0.0394,-0.0394,0,0.0348,0.0357,0.0353,0.0344,0.0345,0.0334,0.0315,0.0298,0.0253,0.0216,0.0189,0.0082,-0.0021,-0.0112,-0.0235,-0.0279,-0.036,-0.0382,-0.0342,-0.035,-0.0369,-0.0364,-0.0409,-0.0409,-0.0408,-0.0408,-0.0408,0,0.0335,0.034,0.0361,0.037,0.0367,0.036,0.0353,0.0318,0.0304,0.0234,0.0213,0.011,0.003,-0.0117,-0.0225,-0.0344,-0.0365,-0.0384,-0.0399,-0.0368,-0.0374,-0.037,-0.0366,-0.0408,-0.0408,-0.0408,-0.0408,0,0.0308,0.0335,0.0336,0.0363,0.0373,0.0377,0.0368,0.0365,0.032,0.0308,0.0221,0.0123,0.0014,-0.0121,-0.0207,-0.03,-0.0363,-0.0384,-0.0385,-0.0399,-0.0368,-0.0373,-0.0369,-0.0408,-0.0408,-0.0408,-0.0408,0,0.0292,0.0297,0.0322,0.0333,0.0367,0.0371,0.0365,0.0344,0.0326,0.0272,0.0244,0.0112,0.0044,-0.0098,-0.0187,-0.0268,-0.0293,-0.0305,-0.0311,-0.0313,-0.0284,-0.0231,-0.024,0,0,0,0,0,0.0273,0.0278,0.0287,0.0302,0.0342,0.0362,0.0367,0.0359,0.0348,0.0298,0.0274,0.0167,0.0011,-0.0073,-0.0153,-0.0194,-0.0309,-0.0288,-0.0327,-0.0406,-0.0406,-0.039,0,0,0,0,0,0,0.026,0.0275,0.0271,0.0282,0.0303,0.0328,0.034,0.0323,0.0295,0.0281,0.0191,0.0172,0.001,0.0063,-0.0147,-0.0173,-0.0203,-0.0355,-0.0356,-0.0406,-0.0406,-0.0406,-0.0389,0,0,0,0,0]}]]